Retour au catalogue

COSMOS 1285 DEB

LostHEO
NORAD 28559·DEBRIS·🇷🇺 Russia

Lancé Aug 4, 1981 depuis Plesetsk Cosmodrome

Loading…

Prochains Passages (prochaines 24 heures)

TLE

PériméSource: Space-Track

Époque: Mar 30, 2012, 07:28 UTC

1 28559U 81071T   12090.31134640  .00000055  00000-0  10000-3 0  9994
2 28559  66.9714  54.2905 5879206 127.0292 302.4814  1.98348784 64430

Suivez COSMOS 1285 DEB en temps réel avec AllMySat

Download on the App Store